sat.trackr.live / text

‹ back to catalog

LEMUR-2-NURAY

NORAD 69932 · 2026-156BR

PAYLOAD ACTIVE UNKNOWN

§ Identity

Operator
Country
GER
Launch date
2026-07-07
Launch site
AFWTR
Launch vehicle
Mass (kg)
RCS (m²)

External: N2YO · Heavens-Above · Gunter

§ Orbital elements

Epoch: 2026-09-19T23:10:07.703616Z

Period
96.48 min
Inclination
97.7384°
Eccentricity
0.0007876
Mean motion
14.92499124 rev/d
Perigee alt
584.7 km
Apogee alt
595.6 km
Semi-major
6,968.3 km
B*
9.2349e-5
RAAN
162.1801°
Arg perigee
263.0034°
Mean anomaly
97.0289°
Rev number
1,113

§ Raw data

LEMUR-2-NURAY1 69932U 26156BR  26262.96536694  .00000892  00000+0  92349-4 0  99942 69932  97.7384 162.1801 0007876 263.0034  97.0289 14.92499124 11130

JSON: /api/v1/satellites/69932 · /tle

For live sub-satellite position, see the globe view (requires WebGL).

§ Visibility from observer

Set your observer location to see the next 7 days of passes ≥ 10°. The values pass through the URL so the page stays shareable.

No JS? Fill the form by hand. The geolocation button needs JavaScript.